Home > Weather > Inverness > Past weeks

Flag for USA Past Weather in Inverness, Florida, USA — Yesterday and Last 2 Weeks

Now
81 °F

Warm.


Feels Like: 86 °F
Forecast: 76 / 94 °F
Wind: N/A

Location: The Villages

Current Time: Jul 29, 2016 at 1:56:11 AM

Latest Report: Jul 29, 2016 at 1:15 AM


Visibility: 10 mi

Pressure: 29.96 "Hg

Humidity: 84%

Dew Point: 75 °F

Location of InvernessLocation

Past Weather in Inverness — Graph

°F

Inverness Temperature Yesterday

Maximum temperature yesterday: 97 °F (at 3:15 PM)
Minimum temperature yesterday: 75 °F (at 4:15 AM)
Average temperature yesterday: 86 °F

High & Low Weather Summary for the Past Weeks

 TemperatureHumidityPressure
High97 °F (Jul 27, 4:15 PM)100% (Jul 15, 12:55 AM)30.15 "Hg (Jul 15, 12:55 AM)
Low73 °F (Jul 14, 4:35 AM)36% (Jul 16, 3:55 PM)29.87 "Hg (Jul 23, 5:35 PM)
Average83 °F78%30.00 "Hg
* Reported Jul 14 12:15 AM — Jul 29 12:35 AM, Inverness, Weather by CustomWeather, © 2016

Note: Actual official high and low records may vary slightly from our data, if they occured in-between our weather recording intervals... More about our weather records

Advertising

Inverness Weather History for the Previous 24 Hours

Scroll right to see more
 ConditionsComfort  
Time TempWeatherWind HumidityBarometerVisibility
12:35 AM
Fri, Jul 29
82 °FWarm.No wind79%29.97 "Hg10 mi
12:15 AM81 °FWarm.N/A84%29.96 "Hg10 mi
11:55 PM
Thu, Jul 28
82 °FWarm.N/A79%29.96 "Hg10 mi
11:35 PM82 °FWarm.N/A79%29.96 "Hg10 mi
11:15 PM84 °FWarm.No wind70%29.96 "Hg9 mi
10:55 PM84 °FWarm.N/A70%29.95 "Hg10 mi
10:15 PM86 °FWarm.N/A66%29.94 "Hg10 mi
9:55 PM86 °FWarm.N/A66%29.94 "Hg10 mi
9:15 PM88 °FWarm.N/A62%29.92 "Hg10 mi
8:55 PM88 °FWarm.N/A62%29.92 "Hg10 mi
8:35 PM90 °FHot.N/A59%29.91 "Hg10 mi
8:15 PM90 °FHot.N/A59%29.91 "Hg10 mi
7:55 PM91 °FHot.N/A56%29.91 "Hg10 mi
7:35 PM91 °FHot.N/A56%29.91 "HgN/A
7:15 PM91 °FHot.N/A59%29.90 "Hg10 mi
6:55 PM91 °FHot.N/A59%29.91 "Hg10 mi
6:35 PM93 °FExtremely hot.N/A53%29.90 "Hg10 mi
6:15 PM93 °FExtremely hot.N/A56%29.91 "Hg10 mi
5:55 PM95 °FExtremely hot.13 mph53%29.90 "Hg10 mi
5:35 PM95 °FExtremely hot.N/A50%29.90 "Hg10 mi
5:15 PM97 °FExtremely hot.N/A44%29.90 "Hg10 mi
4:55 PM95 °FExtremely hot.N/A47%29.89 "Hg7 mi
4:35 PM95 °FExtremely hot.N/A47%29.90 "Hg10 mi
4:15 PM97 °FExtremely hot.N/A47%29.90 "Hg10 mi
3:55 PM97 °FExtremely hot.N/A47%29.91 "Hg10 mi
3:15 PM97 °FExtremely hot.N/A47%29.92 "Hg10 mi
2:55 PM95 °FExtremely hot.N/A50%29.93 "Hg10 mi
2:35 PM95 °FExtremely hot.No wind53%29.94 "Hg10 mi
2:15 PM95 °FExtremely hot.N/A53%29.94 "Hg10 mi
1:55 PM95 °FExtremely hot.N/A53%29.95 "Hg10 mi
1:15 PM93 °FExtremely hot.N/A56%29.96 "Hg10 mi
12:55 PM93 °FExtremely hot.N/A59%29.97 "Hg10 mi
12:15 PM91 °FHot.No wind63%29.98 "Hg10 mi
11:55 AM90 °FHot.N/A63%29.98 "Hg8 mi
11:35 AM90 °FHot.No wind67%29.99 "Hg10 mi
11:15 AM90 °FHot.No wind67%29.99 "Hg10 mi
10:55 AM90 °FHot.No wind67%29.99 "HgN/A
10:35 AM88 °FWarm.No wind70%30.00 "Hg10 mi
10:15 AM88 °FWarm.No wind70%29.99 "Hg10 mi
9:55 AM86 °FWarm.No wind75%29.99 "Hg10 mi
9:15 AM84 °FWarm.No wind84%29.99 "Hg10 mi
8:55 AM82 °FWarm.No wind84%29.99 "Hg10 mi
8:15 AM81 °FWarm.No wind89%29.98 "Hg10 mi
7:55 AM79 °FWarm.No wind94%29.98 "Hg10 mi
7:35 AM77 °FWarm.No wind100%29.98 "Hg10 mi
7:15 AM77 °FWarm.No wind94%29.98 "Hg10 mi
6:55 AM77 °FWarm.No wind94%29.98 "Hg10 mi
6:15 AM77 °FWarm.No wind94%29.97 "Hg10 mi
5:55 AM77 °FWarm.No wind94%29.96 "Hg10 mi
5:35 AM75 °FMild.No wind100%29.97 "Hg7 mi
5:15 AM75 °FMild.No wind100%29.96 "Hg10 mi
4:55 AM77 °FWarm.No wind94%29.96 "Hg9 mi
4:35 AM75 °FMild.No wind100%29.96 "Hg10 mi
4:15 AM75 °FMild.No wind100%29.95 "Hg10 mi
3:55 AM77 °FWarm.No wind94%29.95 "Hg10 mi
3:35 AM77 °FWarm.No wind94%29.96 "Hg10 mi
3:15 AM77 °FWarm.No wind94%29.97 "Hg10 mi
2:55 AM77 °FWarm.No wind94%29.97 "Hg10 mi
2:35 AM79 °FWarm.No wind89%29.97 "Hg10 mi
2:15 AM79 °FWarm.N/A89%29.97 "Hg10 mi
1:55 AM81 °FWarm.No wind84%29.96 "Hg10 mi
1:35 AM81 °FWarm.No wind89%29.97 "Hg10 mi
1:15 AM81 °FWarm.No wind89%29.97 "Hg10 mi
Weather by CustomWeather, © 2016

See weather overviewHow to use our weather pages